Main page
METAR-TAF:

METAR-TAF

Airports :

Naxos Island National Airport

Naxos, Greece

latitude: 37-04-47N, longitude: 025-22-01E, elevation: 3 m

Current weather observation

The report was made 31 minutes ago, at 11:50 UTC
Wind 10 kt from the South/Southwest
Temperature 22°C
Humidity 73%
Pressure 1012 hPa
Visibility 10 km or more
Few clouds at a height of 2500 ft

METAR: LGNX 211150Z 21010KT 9999 FEW025 22/17 Q1012

Time: 14:21 (12:21 UTC)


TAF: missing

Weather observations and forecasts of more than 4000 airports (METAR and TAF reports).

The available stations are represented by yellow and red dots on the map.

Hover mouse over dot to see the name of the station.

Then click to see weather observations and forecasts.

To change the map : click on the green buttons with a black cross to zoom in, on the green button with a dash to zoom out, or on the green arrows for adjacent maps.


METAR-TAF: